Location: Kerguer�zec
(48.4509°N, 4.7600°W)
Time: 00:45:06
(UTC+00:00)

N. Korean satellite - Pass Details

Date: 14 March 2021
Orbit: 453 x 499 km, 97.2° (Epoch: 11 April)

Event Time Altitude Azimuth Distance (km) Brightness Sun altitude
Rises 05:08:58 0° 22° (NNE) 2,563 10.8 -14.9°
Reaches altitude 10° 05:11:15 10° 35° (NE) 1,685 10.0 -14.5°
Maximum altitude 05:14:24 28° 96° (E) 960 8.9 -14.0°
Drops below altitude 10° 05:17:34 10° 156° (SSE) 1,690 9.5 -13.5°
Sets 05:19:52 0° 168° (SSE) 2,572 10.3 -13.1°
